,,Stat6,,Stat2,,Stat8,,Stat9,,Stat10,,Wind1,,Wind1,
time,status,PA1M_AVG,status,PR1M_SUM,status,RH1M_AVG,status,SR1M_AVG,status,TA1M_AVG,status,W1dAve1m,status,W1sAve1m,
2006-03-04, 00:00:00,VALID,919.494,VALID,0,VALID,92.6313,VALID,-0.101885,VALID,20.1238,VALID,62,VALID,1.28887,
2006-03-04, 00:01:00,VALID,919.459,VALID,0,VALID,92.6059,VALID,-0.101885,VALID,20.1298,VALID,63,VALID,1.40625,
2006-03-04, 00:02:00,VALID,919.463,VALID,0,VALID,92.3897,VALID,-0.101885,VALID,20.1529,VALID,67,VALID,1.02496,
2006-03-04, 00:03:00,VALID,919.424,VALID,0,VALID,92.3566,VALID,-0.0679233,VALID,20.1203,VALID,88,VALID,0.987571,
2006-03-04, 00:04:00,VALID,919.407,VALID,0,VALID,92.5855,VALID,-0.101885,VALID,20.0654,VALID,119,VALID,1.1776,
2006-03-04, 00:05:00,VALID,919.393,VALID,0,VALID,93.1578,VALID,-0.101885,VALID,19.9975,VALID,120,VALID,1.1861,
2006-03-04, 00:06:00,VALID,919.375,VALID,0,VALID,93.4439,VALID,-0.118866,VALID,19.9329,VALID,117,VALID,1.12391,
2006-03-04, 00:07:00,VALID,919.372,VALID,0,VALID,94.072,VALID,-0.0679233,VALID,19.8424,VALID,112,VALID,1.27992,
2006-03-04, 00:08:00,VALID,919.359,VALID,0,VALID,94.6036,VALID,0,VALID,19.7154,VALID,108,VALID,1.32336,
2006-03-04, 00:09:00,VALID,919.356,VALID,0,VALID,95.0715,VALID,0,VALID,19.6018,VALID,108,VALID,1.60637,
2006-03-04, 00:10:00,VALID,919.331,VALID,0,VALID,95.4365,VALID,0.0339617,VALID,19.5441,VALID,112,VALID,1.68823,
2006-03-04, 00:11:00,VALID,919.291,VALID,0,VALID,95.5662,VALID,-0.0169808,VALID,19.5275,VALID,100,VALID,1.65234,
2006-03-04, 00:12:00,VALID,919.258,VALID,0,VALID,95.425,VALID,0.0169808,VALID,19.5312,VALID,100,VALID,1.61861,
2006-03-04, 00:13:00,VALID,919.228,VALID,0,VALID,95.1008,VALID,0.0169808,VALID,19.5697,VALID,105,VALID,2.02046,
2006-03-04, 00:14:00,VALID,919.179,VALID,0,VALID,94.6252,VALID,0.0169808,VALID,19.6505,VALID,108,VALID,1.94989,
2006-03-04, 00:15:00,VALID,919.162,VALID,0,VALID,94.0072,VALID,0.0339617,VALID,19.7569,VALID,104,VALID,1.98238,
2006-03-04, 00:16:00,VALID,919.145,VALID,0,VALID,93.6918,VALID,0.0169808,VALID,19.8573,VALID,112,VALID,1.81417,
2006-03-04, 00:17:00,VALID,919.113,VALID,0,VALID,93.5825,VALID,0.0169808,VALID,19.8961,VALID,114,VALID,1.70259,
2006-03-04, 00:18:00,VALID,919.081,VALID,0,VALID,93.73,VALID,0.0169808,VALID,19.9219,VALID,116,VALID,1.68768,
2006-03-04, 00:19:00,VALID,919.042,VALID,0,VALID,93.7503,VALID,-0.0169808,VALID,19.9456,VALID,116,VALID,1.8276,
2006-03-04, 00:20:00,VALID,919,VALID,0,VALID,93.6689,VALID,0,VALID,19.9378,VALID,118,VALID,1.78962,
2006-03-04, 00:21:00,VALID,918.99,VALID,0,VALID,93.5901,VALID,0.0169808,VALID,19.9513,VALID,116,VALID,1.61239,
2006-03-04, 00:22:00,VALID,918.972,VALID,0,VALID,93.51,VALID,0,VALID,19.9771,VALID,121,VALID,1.38129,
2006-03-04, 00:23:00,VALID,918.956,VALID,0,VALID,93.3866,VALID,0.0169808,VALID,19.9731,VALID,119,VALID,1.46039,
2006-03-04, 00:24:00,VALID,918.936,VALID,0,VALID,93.2595,VALID,0.0169808,VALID,20.0027,VALID,119,VALID,1.58043,
2006-03-04, 00:25:00,VALID,918.938,VALID,0,VALID,93.1857,VALID,0,VALID,20.0226,VALID,121,VALID,1.64187,
2006-03-04, 00:26:00,VALID,918.927,VALID,0,VALID,93.1908,VALID,0.0169808,VALID,20.0156,VALID,123,VALID,1.78144,
2006-03-04, 00:27:00,VALID,918.926,VALID,0,VALID,93.2264,VALID,0,VALID,20.0258,VALID,116,VALID,1.67365,
2006-03-04, 00:28:00,VALID,918.922,VALID,0,VALID,93.3027,VALID,0,VALID,20.0355,VALID,106,VALID,1.95827,
2006-03-04, 00:29:00,VALID,918.904,VALID,0,VALID,93.243,VALID,0.0339617,VALID,20.0355,VALID,122,VALID,2.10342,
2006-03-04, 00:30:00,VALID,918.908,VALID,0,VALID,93.1997,VALID,0,VALID,20.0288,VALID,120,VALID,2.27251,
2006-03-04, 00:31:00,VALID,918.897,VALID,0,VALID,93.1756,VALID,0.0509425,VALID,20.0283,VALID,127,VALID,1.89174,
2006-03-04, 00:32:00,VALID,918.906,VALID,0,VALID,93.3129,VALID,0,VALID,20.0094,VALID,119,VALID,2.30413,
2006-03-04, 00:33:00,VALID,918.917,VALID,0,VALID,93.4528,VALID,0.0169808,VALID,19.9928,VALID,118,VALID,2.06593,
2006-03-04, 00:34:00,VALID,918.897,VALID,0,VALID,93.6117,VALID,0,VALID,19.9798,VALID,122,VALID,2.21354,
2006-03-04, 00:35:00,VALID,918.9,VALID,0,VALID,93.6308,VALID,0.0169808,VALID,19.9796,VALID,119,VALID,2.16777,
2006-03-04, 00:36:00,VALID,918.907,VALID,0,VALID,93.5367,VALID,0.0169808,VALID,19.993,VALID,123,VALID,1.99829,
2006-03-04, 00:37:00,VALID,918.906,VALID,0,VALID,93.421,VALID,0,VALID,19.9963,VALID,120,VALID,2.00618,
2006-03-04, 00:38:00,VALID,918.916,VALID,0,VALID,93.1921,VALID,0.0169808,VALID,20.0547,VALID,121,VALID,2.24655,
2006-03-04, 00:39:00,VALID,918.931,VALID,0,VALID,92.8449,VALID,0,VALID,20.1357,VALID,113,VALID,1.98928,
2006-03-04, 00:40:00,VALID,918.942,VALID,0,VALID,92.5932,VALID,0.0169808,VALID,20.174,VALID,114,VALID,1.76254,
2006-03-04, 00:41:00,VALID,918.946,VALID,0,VALID,92.5054,VALID,0,VALID,20.1772,VALID,116,VALID,1.82107,
2006-03-04, 00:42:00,VALID,918.945,VALID,0,VALID,92.3744,VALID,0.0509425,VALID,20.1934,VALID,120,VALID,1.74077,
2006-03-04, 00:43:00,VALID,918.942,VALID,0,VALID,92.2053,VALID,0,VALID,20.213,VALID,117,VALID,1.82617,
2006-03-04, 00:44:00,VALID,918.929,VALID,0,VALID,91.9866,VALID,0.0169808,VALID,20.2456,VALID,124,VALID,1.76181,
2006-03-04, 00:45:00,VALID,918.929,VALID,0,VALID,91.6929,VALID,0,VALID,20.2973,VALID,113,VALID,1.45759,
2006-03-04, 00:46:00,VALID,918.935,VALID,0,VALID,91.2834,VALID,0.0169808,VALID,20.3714,VALID,115,VALID,1.40489,
2006-03-04, 00:47:00,VALID,918.921,VALID,0,VALID,90.7086,VALID,0,VALID,20.4748,VALID,116,VALID,1.48056,
2006-03-04, 00:48:00,VALID,918.918,VALID,0,VALID,90.1708,VALID,0.0339617,VALID,20.582,VALID,116,VALID,1.91674,
2006-03-04, 00:49:00,VALID,918.897,VALID,0,VALID,89.7346,VALID,0,VALID,20.6556,VALID,111,VALID,1.67951,
2006-03-04, 00:50:00,VALID,918.88,VALID,0,VALID,89.4269,VALID,0,VALID,20.7471,VALID,107,VALID,1.5918,
2006-03-04, 00:51:00,VALID,918.86,VALID,0,VALID,89.2158,VALID,0,VALID,20.7854,VALID,104,VALID,1.57755,
2006-03-04, 00:52:00,VALID,918.837,VALID,0,VALID,89.0428,VALID,0,VALID,20.8007,VALID,97,VALID,1.78277,
2006-03-04, 00:53:00,VALID,918.828,VALID,0,VALID,88.9348,VALID,-0.0339617,VALID,20.8373,VALID,105,VALID,1.59066,
2006-03-04, 00:54:00,VALID,918.801,VALID,0,VALID,88.8788,VALID,-0.0169808,VALID,20.8436,VALID,108,VALID,1.66216,
2006-03-04, 00:55:00,VALID,918.784,VALID,0,VALID,88.9309,VALID,-0.0169808,VALID,20.8406,VALID,88,VALID,1.18388,
2006-03-04, 00:56:00,VALID,918.779,VALID,0,VALID,89.2018,VALID,-0.0509425,VALID,20.7921,VALID,90,VALID,1.31214,
2006-03-04, 00:57:00,VALID,918.769,VALID,0,VALID,89.4269,VALID,-0.0509425,VALID,20.7406,VALID,88,VALID,1.52925,
2006-03-04, 00:58:00,VALID,918.764,VALID,0,VALID,89.4408,VALID,-0.0509425,VALID,20.7277,VALID,89,VALID,1.49009,
2006-03-04, 00:59:00,VALID,918.761,VALID,0,VALID,89.5655,VALID,-0.0509425,VALID,20.7013,VALID,99,VALID,1.65816,
2006-03-04, 01:00:00,VALID,918.752,VALID,0,VALID,89.6812,VALID,0,VALID,20.6887,VALID,93,VALID,1.62802,
2006-03-04, 01:01:00,VALID,918.751,VALID,0,VALID,89.8325,VALID,0,VALID,20.6528,VALID,93,VALID,1.22749,
2006-03-04, 01:02:00,VALID,918.751,VALID,0,VALID,90.0767,VALID,-0.0339617,VALID,20.6205,VALID,92,VALID,1.35849,
2006-03-04, 01:03:00,VALID,918.745,VALID,0,VALID,90.2763,VALID,-0.0679233,VALID,20.5817,VALID,118,VALID,1.67896,
2006-03-04, 01:04:00,VALID,918.742,VALID,0,VALID,90.3221,VALID,-0.0679233,VALID,20.579,VALID,131,VALID,1.44874,
2006-03-04, 01:05:00,VALID,918.747,VALID,0,VALID,90.3996,VALID,-0.0509425,VALID,20.5629,VALID,136,VALID,1.53525,
2006-03-04, 01:06:00,VALID,918.756,VALID,0,VALID,90.5459,VALID,-0.0509425,VALID,20.5629,VALID,136,VALID,1.25986,
2006-03-04, 01:07:00,VALID,918.766,VALID,0,VALID,90.6756,VALID,-0.0679233,VALID,20.54,VALID,129,VALID,1.2202,
2006-03-04, 01:08:00,VALID,918.768,VALID,0,VALID,90.8167,VALID,-0.0509425,VALID,20.527,VALID,109,VALID,1.46057,
2006-03-04, 01:09:00,VALID,918.757,VALID,0,VALID,90.9973,VALID,-0.0169808,VALID,20.5009,VALID,128,VALID,1.46484,
2006-03-04, 01:10:00,VALID,918.729,VALID,0,VALID,91.1512,VALID,-0.0339617,VALID,20.4756,VALID,138,VALID,1.6492,
2006-03-04, 01:11:00,VALID,918.694,VALID,0,VALID,91.3915,VALID,-0.0509425,VALID,20.4328,VALID,142,VALID,1.33441,
2006-03-04, 01:12:00,VALID,918.667,VALID,0,VALID,91.6496,VALID,-0.0339617,VALID,20.3878,VALID,140,VALID,1.6891,
2006-03-04, 01:13:00,VALID,918.668,VALID,0,VALID,91.9039,VALID,-0.0169808,VALID,20.3455,VALID,133,VALID,1.70827,
2006-03-04, 01:14:00,VALID,918.659,VALID,0,VALID,92.0375,VALID,-0.0339617,VALID,20.3073,VALID,123,VALID,1.81562,
2006-03-04, 01:15:00,VALID,918.64,VALID,0,VALID,91.9345,VALID,-0.0509425,VALID,20.3237,VALID,127,VALID,1.59606,
2006-03-04, 01:16:00,VALID,918.64,VALID,0,VALID,91.773,VALID,-0.0679233,VALID,20.3458,VALID,110,VALID,1.75231,
2006-03-04, 01:17:00,VALID,918.63,VALID,0,VALID,91.5988,VALID,0,VALID,20.3649,VALID,97,VALID,1.46373,
2006-03-04, 01:18:00,VALID,918.63,VALID,0,VALID,91.2656,VALID,-0.0169808,VALID,20.401,VALID,110,VALID,1.96039,
2006-03-04, 01:19:00,VALID,918.613,VALID,0,VALID,90.4047,VALID,-0.0509425,VALID,20.4848,VALID,93,VALID,2.4504,
2006-03-04, 01:20:00,VALID,918.619,VALID,0,VALID,89.6723,VALID,-0.0339617,VALID,20.6466,VALID,112,VALID,2.36156,
2006-03-04, 01:21:00,VALID,918.593,VALID,0,VALID,89.4307,VALID,0,VALID,20.7665,VALID,107,VALID,1.58105,
2006-03-04, 01:22:00,VALID,918.6,VALID,0,VALID,89.5044,VALID,-0.0339617,VALID,20.773,VALID,121,VALID,1.69176,
2006-03-04, 01:23:00,VALID,918.621,VALID,0,VALID,89.5642,VALID,-0.0169808,VALID,20.7366,VALID,117,VALID,2.42344,
2006-03-04, 01:24:00,VALID,918.646,VALID,0,VALID,89.5413,VALID,-0.0509425,VALID,20.7366,VALID,113,VALID,2.00362,
2006-03-04, 01:25:00,VALID,918.676,VALID,0,VALID,89.32,VALID,-0.0509425,VALID,20.7366,VALID,110,VALID,2.10728,
2006-03-04, 01:26:00,VALID,918.678,VALID,0,VALID,89.2412,VALID,-0.0339617,VALID,20.7625,VALID,121,VALID,1.94004,
2006-03-04, 01:27:00,VALID,918.691,VALID,0,VALID,89.0988,VALID,-0.0679233,VALID,20.7854,VALID,130,VALID,1.65171,
2006-03-04, 01:28:00,VALID,918.691,VALID,0,VALID,88.2837,VALID,-0.0509425,VALID,20.8207,VALID,125,VALID,2.72805,
2006-03-04, 01:29:00,VALID,918.721,VALID,0,VALID,87.8793,VALID,-0.0339617,VALID,20.9629,VALID,125,VALID,1.77024,
2006-03-04, 01:30:00,VALID,918.728,VALID,0,VALID,87.3745,VALID,-0.0509425,VALID,21.0477,VALID,113,VALID,2.14286,
2006-03-04, 01:31:00,VALID,918.741,VALID,0,VALID,86.7692,VALID,-0.0679233,VALID,21.1151,VALID,110,VALID,2.11905,
2006-03-04, 01:32:00,VALID,918.729,VALID,0,VALID,86.6039,VALID,-0.0849042,VALID,21.1859,VALID,107,VALID,1.82315,
2006-03-04, 01:33:00,VALID,918.727,VALID,0,VALID,86.4717,VALID,0,VALID,21.2086,VALID,115,VALID,2.13132,
2006-03-04, 01:34:00,VALID,918.718,VALID,0,VALID,86.548,VALID,-0.0509425,VALID,21.2088,VALID,110,VALID,1.93979,
2006-03-04, 01:35:00,VALID,918.688,VALID,0,VALID,86.3648,VALID,-0.0509425,VALID,21.176,VALID,102,VALID,2.06032,
2006-03-04, 01:36:00,VALID,918.657,VALID,0,VALID,86.0291,VALID,-0.0339617,VALID,21.1765,VALID,110,VALID,2.11547,
2006-03-04, 01:37:00,VALID,918.637,VALID,0,VALID,85.682,VALID,-0.0509425,VALID,21.2021,VALID,116,VALID,2.16566,
2006-03-04, 01:38:00,VALID,918.625,VALID,0,VALID,85.5904,VALID,-0.0679233,VALID,21.2382,VALID,115,VALID,2.08296,
2006-03-04, 01:39:00,VALID,918.607,VALID,0,VALID,85.71,VALID,-0.0849042,VALID,21.2449,VALID,123,VALID,2.55964,
2006-03-04, 01:40:00,VALID,918.607,VALID,0,VALID,85.682,VALID,-0.0339617,VALID,21.2188,VALID,113,VALID,2.11168,
2006-03-04, 01:41:00,VALID,918.614,VALID,0,VALID,85.9808,VALID,-0.0339617,VALID,21.1959,VALID,102,VALID,1.69629,
2006-03-04, 01:42:00,VALID,918.609,VALID,0,VALID,86.4246,VALID,-0.0509425,VALID,21.1372,VALID,111,VALID,2.00604,
2006-03-04, 01:43:00,VALID,918.609,VALID,0,VALID,86.6764,VALID,-0.0339617,VALID,21.1086,VALID,100,VALID,1.33761,
2006-03-04, 01:44:00,VALID,918.587,VALID,0,VALID,86.7387,VALID,0,VALID,21.0661,VALID,111,VALID,2.0022,
2006-03-04, 01:45:00,VALID,918.575,VALID,0,VALID,86.8201,VALID,-0.0509425,VALID,21.0494,VALID,117,VALID,2.25229,
2006-03-04, 01:46:00,VALID,918.556,VALID,0,VALID,86.8862,VALID,-0.0509425,VALID,21.0432,VALID,106,VALID,1.45846,
2006-03-04, 01:47:00,VALID,918.546,VALID,0,VALID,86.9015,VALID,-0.0509425,VALID,21.0208,VALID,95,VALID,1.49273,
2006-03-04, 01:48:00,VALID,918.531,VALID,0,VALID,87.0706,VALID,0,VALID,21.0116,VALID,125,VALID,2.25709,
2006-03-04, 01:49:00,VALID,918.51,VALID,0,VALID,87.3262,VALID,-0.0169808,VALID,21.0049,VALID,122,VALID,2.44709,
2006-03-04, 01:50:00,VALID,918.51,VALID,0,VALID,87.4126,VALID,-0.0339617,VALID,20.988,VALID,124,VALID,2.42225,
2006-03-04, 01:51:00,VALID,918.503,VALID,0,VALID,87.5373,VALID,0,VALID,20.9915,VALID,99,VALID,1.74219,
2006-03-04, 01:52:00,VALID,918.501,VALID,0,VALID,87.8755,VALID,-0.0169808,VALID,20.9527,VALID,105,VALID,2.19949,
2006-03-04, 01:53:00,VALID,918.504,VALID,0,VALID,87.9442,VALID,-0.0169808,VALID,20.9206,VALID,114,VALID,2.36243,
2006-03-04, 01:54:00,VALID,918.486,VALID,0,VALID,88.0891,VALID,-0.0849042,VALID,20.9139,VALID,126,VALID,2.28303,
2006-03-04, 01:55:00,VALID,918.479,VALID,0,VALID,88.2888,VALID,-0.0679233,VALID,20.8945,VALID,115,VALID,2.04611,
2006-03-04, 01:56:00,VALID,918.474,VALID,0,VALID,88.6029,VALID,-0.0679233,VALID,20.8595,VALID,117,VALID,2.21768,
2006-03-04, 01:57:00,VALID,918.456,VALID,0,VALID,88.9767,VALID,-0.0679233,VALID,20.7916,VALID,118,VALID,1.98819,
2006-03-04, 01:58:00,VALID,918.452,VALID,0,VALID,89.2412,VALID,-0.101885,VALID,20.7401,VALID,127,VALID,2.03089,
2006-03-04, 01:59:00,VALID,918.454,VALID,0,VALID,89.5095,VALID,-0.0849042,VALID,20.6887,VALID,111,VALID,1.92374,
2006-03-04, 02:00:00,VALID,918.448,VALID,0,VALID,89.7104,VALID,-0.0849042,VALID,20.6429,VALID,112,VALID,1.99727,
2006-03-04, 02:01:00,VALID,918.419,VALID,0,VALID,89.9012,VALID,-0.101885,VALID,20.6138,VALID,108,VALID,2.00089,
2006-03-04, 02:02:00,VALID,918.408,VALID,0,VALID,89.9101,VALID,-0.0849042,VALID,20.6006,VALID,111,VALID,1.93973,
2006-03-04, 02:03:00,VALID,918.391,VALID,0,VALID,89.5171,VALID,-0.0679233,VALID,20.5971,VALID,101,VALID,2.21538,
2006-03-04, 02:04:00,VALID,918.378,VALID,0,VALID,88.9436,VALID,-0.101885,VALID,20.6593,VALID,87,VALID,2.14453,
2006-03-04, 02:05:00,VALID,918.369,VALID,0,VALID,88.8381,VALID,-0.101885,VALID,20.7038,VALID,93,VALID,1.96987,
2006-03-04, 02:06:00,VALID,918.376,VALID,0,VALID,88.7796,VALID,-0.101885,VALID,20.717,VALID,105,VALID,2.04705,
2006-03-04, 02:07:00,VALID,918.361,VALID,0,VALID,88.2036,VALID,-0.0849042,VALID,20.7175,VALID,106,VALID,2.50051,
2006-03-04, 02:08:00,VALID,918.351,VALID,0,VALID,86.1296,VALID,-0.0849042,VALID,20.7461,VALID,65,VALID,2.4362,
2006-03-04, 02:09:00,VALID,918.356,VALID,0,VALID,84.6037,VALID,-0.0849042,VALID,20.8786,VALID,71,VALID,1.60193,
2006-03-04, 02:10:00,VALID,918.353,VALID,0,VALID,83.861,VALID,-0.0679233,VALID,21.0178,VALID,123,VALID,1.90803,
2006-03-04, 02:11:00,VALID,918.35,VALID,0,VALID,84.8542,VALID,-0.0679233,VALID,21.1307,VALID,134,VALID,2.12443,
2006-03-04, 02:12:00,VALID,918.351,VALID,0,VALID,85.6807,VALID,-0.101885,VALID,21.1442,VALID,130,VALID,2.24961,
2006-03-04, 02:13:00,VALID,918.341,VALID,0,VALID,85.7227,VALID,-0.101885,VALID,21.0987,VALID,119,VALID,2.35483,
2006-03-04, 02:14:00,VALID,918.325,VALID,0,VALID,86.0304,VALID,-0.0679233,VALID,21.1019,VALID,142,VALID,1.57254,
2006-03-04, 02:15:00,VALID,918.319,VALID,0,VALID,86.2644,VALID,-0.101885,VALID,21.0569,VALID,143,VALID,1.1008,
2006-03-04, 02:16:00,VALID,918.326,VALID,0,VALID,86.8824,VALID,-0.0679233,VALID,21.0054,VALID,137,VALID,1.33339,
2006-03-04, 02:17:00,VALID,918.307,VALID,0,VALID,87.77,VALID,-0.0509425,VALID,20.8856,VALID,146,VALID,1.67378,
2006-03-04, 02:18:00,VALID,918.29,VALID,0,VALID,88.4821,VALID,-0.0679233,VALID,20.7786,VALID,148,VALID,1.60955,
2006-03-04, 02:19:00,VALID,918.298,VALID,0,VALID,88.8457,VALID,-0.0509425,VALID,20.7277,VALID,107,VALID,1.24653,
2006-03-04, 02:20:00,VALID,918.28,VALID,0,VALID,89.1433,VALID,-0.0339617,VALID,20.6421,VALID,113,VALID,1.7843,
2006-03-04, 02:21:00,VALID,918.258,VALID,0,VALID,89.0568,VALID,-0.0339617,VALID,20.6006,VALID,120,VALID,1.48456,
2006-03-04, 02:22:00,VALID,918.239,VALID,0,VALID,89.0708,VALID,-0.0679233,VALID,20.5812,VALID,117,VALID,1.66406,
2006-03-04, 02:23:00,VALID,918.222,VALID,0,VALID,88.9271,VALID,-0.0679233,VALID,20.5772,VALID,117,VALID,1.85483,
2006-03-04, 02:24:00,VALID,918.188,VALID,0,VALID,88.7885,VALID,-0.0849042,VALID,20.6135,VALID,119,VALID,2.1291,
2006-03-04, 02:25:00,VALID,918.174,VALID,0,VALID,88.3816,VALID,-0.101885,VALID,20.6431,VALID,120,VALID,2.58631,
2006-03-04, 02:26:00,VALID,918.168,VALID,0,VALID,88.0713,VALID,-0.0849042,VALID,20.6749,VALID,117,VALID,1.7699,
2006-03-04, 02:27:00,VALID,918.141,VALID,0,VALID,88.0052,VALID,-0.101885,VALID,20.6879,VALID,108,VALID,1.84737,
2006-03-04, 02:28:00,VALID,918.117,VALID,0,VALID,87.8323,VALID,-0.0509425,VALID,20.7073,VALID,102,VALID,1.64915,
2006-03-04, 02:29:00,VALID,918.09,VALID,0,VALID,87.9124,VALID,-0.0509425,VALID,20.7108,VALID,97,VALID,1.71966,
2006-03-04, 02:30:00,VALID,918.075,VALID,0,VALID,87.981,VALID,-0.0679233,VALID,20.7013,VALID,98,VALID,1.59357,
2006-03-04, 02:31:00,VALID,918.06,VALID,0,VALID,88.1464,VALID,-0.0679233,VALID,20.6854,VALID,88,VALID,1.18075,
2006-03-04, 02:32:00,VALID,918.033,VALID,0,VALID,88.4732,VALID,-0.101885,VALID,20.627,VALID,96,VALID,1.06063,
2006-03-04, 02:33:00,VALID,918.029,VALID,0,VALID,88.5863,VALID,-0.0679233,VALID,20.5688,VALID,117,VALID,1.63245,
2006-03-04, 02:34:00,VALID,918.029,VALID,0,VALID,88.6436,VALID,-0.0849042,VALID,20.5203,VALID,125,VALID,1.82317,
2006-03-04, 02:35:00,VALID,918.028,VALID,0,VALID,88.7885,VALID,-0.101885,VALID,20.481,VALID,123,VALID,1.75799,
2006-03-04, 02:36:00,VALID,918.023,VALID,0,VALID,88.7377,VALID,-0.0339617,VALID,20.4621,VALID,126,VALID,2.01504,
2006-03-04, 02:37:00,VALID,918.023,VALID,0,VALID,88.7326,VALID,-0.0679233,VALID,20.4818,VALID,117,VALID,1.93296,
2006-03-04, 02:38:00,VALID,918.02,VALID,0,VALID,88.8445,VALID,-0.0169808,VALID,20.4708,VALID,113,VALID,1.53943,
2006-03-04, 02:39:00,VALID,918,VALID,0,VALID,88.9042,VALID,0,VALID,20.4703,VALID,124,VALID,1.47674,
2006-03-04, 02:40:00,VALID,917.99,VALID,0,VALID,88.9882,VALID,0,VALID,20.4547,VALID,139,VALID,1.25117,
2006-03-04, 02:41:00,VALID,917.98,VALID,0,VALID,89.1522,VALID,0,VALID,20.4385,VALID,131,VALID,1.76817,
2006-03-04, 02:42:00,VALID,917.936,VALID,0,VALID,89.2565,VALID,0.0509425,VALID,20.4091,VALID,134,VALID,1.56163,
2006-03-04, 02:43:00,VALID,917.934,VALID,0,VALID,89.2069,VALID,0,VALID,20.383,VALID,116,VALID,1.92016,
2006-03-04, 02:44:00,VALID,917.922,VALID,0,VALID,89.212,VALID,0.0679233,VALID,20.3562,VALID,133,VALID,1.38136,
2006-03-04, 02:45:00,VALID,917.927,VALID,0,VALID,89.5604,VALID,0.0849042,VALID,20.3596,VALID,134,VALID,1.12176,
2006-03-04, 02:46:00,VALID,917.924,VALID,0,VALID,90.0143,VALID,0,VALID,20.3284,VALID,131,VALID,1.45992,
2006-03-04, 02:47:00,VALID,917.923,VALID,0,VALID,90.1288,VALID,0.0509425,VALID,20.2637,VALID,126,VALID,1.80105,
2006-03-04, 02:48:00,VALID,917.913,VALID,0,VALID,90.2305,VALID,0.0339617,VALID,20.2217,VALID,119,VALID,1.78561,
2006-03-04, 02:49:00,VALID,917.882,VALID,0,VALID,90.2865,VALID,0.0339617,VALID,20.1827,VALID,119,VALID,2.19442,
2006-03-04, 02:50:00,VALID,917.866,VALID,0,VALID,90.1644,VALID,0.0169808,VALID,20.1765,VALID,119,VALID,2.175,
2006-03-04, 02:51:00,VALID,917.866,VALID,0,VALID,90.0423,VALID,0.0339617,VALID,20.1568,VALID,117,VALID,2.07013,
2006-03-04, 02:52:00,VALID,917.847,VALID,0,VALID,89.8567,VALID,0.0339617,VALID,20.1374,VALID,121,VALID,2.41297,
2006-03-04, 02:53:00,VALID,917.83,VALID,0,VALID,89.5286,VALID,-0.101885,VALID,20.22,VALID,130,VALID,2.49751,
2006-03-04, 02:54:00,VALID,917.834,VALID,0,VALID,89.4192,VALID,-0.101885,VALID,20.3148,VALID,121,VALID,2.14583,
2006-03-04, 02:55:00,VALID,917.829,VALID,0,VALID,89.5171,VALID,-0.118866,VALID,20.2978,VALID,129,VALID,1.52591,
2006-03-04, 02:56:00,VALID,917.83,VALID,0,VALID,89.5807,VALID,-0.101885,VALID,20.2658,VALID,103,VALID,1.58503,
2006-03-04, 02:57:00,VALID,917.849,VALID,0,VALID,89.273,VALID,-0.118866,VALID,20.2436,VALID,113,VALID,2.20675,
2006-03-04, 02:58:00,VALID,917.832,VALID,0,VALID,88.7949,VALID,-0.101885,VALID,20.2988,VALID,112,VALID,1.94967,
2006-03-04, 02:59:00,VALID,917.842,VALID,0,VALID,88.5889,VALID,-0.101885,VALID,20.3528,VALID,113,VALID,2.06879,
2006-03-04, 03:00:00,VALID,917.841,VALID,0,VALID,88.683,VALID,-0.101885,VALID,20.3958,VALID,138,VALID,1.58685,
2006-03-04, 03:01:00,VALID,917.844,VALID,0,VALID,88.847,VALID,-0.0849042,VALID,20.3856,VALID,139,VALID,1.47066,
2006-03-04, 03:02:00,VALID,917.852,VALID,0,VALID,89.2692,VALID,-0.101885,VALID,20.3404,VALID,139,VALID,1.66933,
2006-03-04, 03:03:00,VALID,917.833,VALID,0,VALID,89.7435,VALID,-0.118866,VALID,20.276,VALID,151,VALID,1.64663,
2006-03-04, 03:04:00,VALID,917.831,VALID,0,VALID,90.2089,VALID,-0.0679233,VALID,20.2046,VALID,153,VALID,1.87016,
2006-03-04, 03:05:00,VALID,917.819,VALID,0,VALID,90.6527,VALID,-0.118866,VALID,20.1531,VALID,157,VALID,1.66746,
2006-03-04, 03:06:00,VALID,917.815,VALID,0,VALID,91.0443,VALID,-0.101885,VALID,20.095,VALID,149,VALID,1.95275,
2006-03-04, 03:07:00,VALID,917.805,VALID,0,VALID,91.3076,VALID,-0.0849042,VALID,20.0271,VALID,149,VALID,1.756,
2006-03-04, 03:08:00,VALID,917.788,VALID,0,VALID,91.4907,VALID,-0.0169808,VALID,19.9935,VALID,144,VALID,1.50629,
2006-03-04, 03:09:00,VALID,917.766,VALID,0,VALID,91.6776,VALID,0,VALID,19.9647,VALID,145,VALID,1.6408,
2006-03-04, 03:10:00,VALID,917.74,VALID,0,VALID,91.5695,VALID,0,VALID,19.9219,VALID,146,VALID,1.71224,
2006-03-04, 03:11:00,VALID,917.728,VALID,0,VALID,91.5085,VALID,-0.0169808,VALID,19.9324,VALID,131,VALID,1.17842,
2006-03-04, 03:12:00,VALID,917.695,VALID,0,VALID,91.6407,VALID,0.0169808,VALID,19.9259,VALID,137,VALID,1.5427,
2006-03-04, 03:13:00,VALID,917.674,VALID,0,VALID,91.6267,VALID,-0.0339617,VALID,19.8993,VALID,157,VALID,0.955729,
2006-03-04, 03:14:00,VALID,917.679,VALID,0,VALID,91.6331,VALID,-0.0169808,VALID,19.8705,VALID,122,VALID,1.15764,
2006-03-04, 03:15:00,VALID,917.668,VALID,0,VALID,91.759,VALID,-0.0169808,VALID,19.8193,VALID,105,VALID,0.62391,
2006-03-04, 03:16:00,VALID,917.667,VALID,0,VALID,92.068,VALID,0,VALID,19.7447,VALID,93,VALID,1.08754,
2006-03-04, 03:17:00,VALID,917.682,VALID,0,VALID,92.5003,VALID,0,VALID,19.7059,VALID,153,VALID,1.5427,
2006-03-04, 03:18:00,VALID,917.667,VALID,0,VALID,92.2193,VALID,-0.0169808,VALID,19.6704,VALID,141,VALID,1.31399,
2006-03-04, 03:19:00,VALID,917.696,VALID,0,VALID,91.0367,VALID,-0.0169808,VALID,19.6773,VALID,162,VALID,1.09355,
2006-03-04, 03:20:00,VALID,917.71,VALID,0,VALID,91.0914,VALID,-0.0169808,VALID,19.7256,VALID,162,VALID,1.11662,
2006-03-04, 03:21:00,VALID,917.712,VALID,0,VALID,91.3724,VALID,0,VALID,19.8096,VALID,162,VALID,1.32153,
2006-03-04, 03:22:00,VALID,917.733,VALID,0,VALID,91.5721,VALID,-0.0169808,VALID,19.868,VALID,155,VALID,1.49437,
2006-03-04, 03:23:00,VALID,917.72,VALID,0,VALID,91.6776,VALID,-0.0169808,VALID,19.913,VALID,165,VALID,1.73898,
2006-03-04, 03:24:00,VALID,917.72,VALID,0,VALID,91.6166,VALID,0,VALID,19.9421,VALID,170,VALID,1.90661,
2006-03-04, 03:25:00,VALID,917.717,VALID,0,VALID,91.5021,VALID,-0.0509425,VALID,19.9555,VALID,171,VALID,2.17823,
2006-03-04, 03:26:00,VALID,917.727,VALID,0,VALID,91.1995,VALID,-0.0169808,VALID,19.9709,VALID,169,VALID,2.10884,
2006-03-04, 03:27:00,VALID,917.737,VALID,0,VALID,91.0265,VALID,-0.0169808,VALID,19.9908,VALID,153,VALID,1.75,
2006-03-04, 03:28:00,VALID,917.753,VALID,0,VALID,90.7722,VALID,0,VALID,19.9771,VALID,144,VALID,1.83363,
2006-03-04, 03:29:00,VALID,917.741,VALID,0,VALID,90.6031,VALID,0,VALID,19.9843,VALID,135,VALID,1.51054,
2006-03-04, 03:30:00,VALID,917.739,VALID,0,VALID,90.5077,VALID,0,VALID,19.9876,VALID,139,VALID,1.24873,
2006-03-04, 03:31:00,VALID,917.731,VALID,0,VALID,90.2725,VALID,0,VALID,19.9871,VALID,145,VALID,1.53797,
2006-03-04, 03:32:00,VALID,917.712,VALID,0,VALID,90.2661,VALID,0,VALID,20.0099,VALID,145,VALID,2.03162,
2006-03-04, 03:33:00,VALID,917.706,VALID,0,VALID,89.7511,VALID,-0.0169808,VALID,20.0094,VALID,136,VALID,2.17605,
2006-03-04, 03:34:00,VALID,917.707,VALID,0,VALID,89.1471,VALID,-0.0339617,VALID,20.0517,VALID,150,VALID,2.18677,
2006-03-04, 03:35:00,VALID,917.716,VALID,0,VALID,89.1687,VALID,-0.0169808,VALID,20.0867,VALID,154,VALID,1.57361,